SCP
0 0 0 0 0 0 0 0 0 0 0 0 0 0 0 0 0 0 0 0 0 0 0 0 0 0 0 0 0 0 0 0 0 0 0 0 0 0 0 0 0 0 0 0
0 0 0 0 0 0 0 0 0 0 0 0 0 0 0 0 0 0 0 0 0 0 0 0 0 0 0 0 0 0 0 0 0 0 0 0 0 0 0 0 0 0 0 0
0 0 0 0 0 0 0 0 0 0 0 0 0 0 0 0 0 0 0 0 0 0 0 0 0 0 0 0 0 0 0 0 0 0 0 0 0 0 0 0 0 0 0 0
0 0 0 0 0 0 0 0 0 0 0 0 0 0 0 0 0 0 0 0 0 0 0 0 0 0 0 0 0 0 0 0 0 0 0 0 0 0 0 0 0 0 0 0
0 0 0 0 0 0 0 0 0 0 0 0 0 0 0 0 0 0 0 0 0 0 0 0 0 0 0 0 0 0 0 0 0 0 0 0 0 0 0 0 0 0 0 0
0 0 0 0 0 0 0 0 0 0 0 0 0 0 0 0 0 0 0 0 0 0 0 0 0 0 0 0 0 0 0 0 0 0 0 0 0 0 0 0 0 0 0 0
0 0 0 0 0 0 0 0 0 0 0 0 0 0 0 0 0 0 0 0 0 0 0 0 0 0 0 0 0 0 0 0 0 0 0 0 0 0 0 0 0 0 0 0
0 0 0 0 0 0 0 0 0 0 0 0 0 0 0 0 0 0 0 0 0 0 0 0 0 0 0 0 0 0 0 0 0 0 0 0 0 0 0 0 0 0 0 0
0 0 0 0 0 0 0 0 0 0 0 0 0 0 0 0 0 0 0 0 0 0 0 0 0 0 0 0 0 0 0 0 0 0 0 0 0 0 0 0 0 0 0 0
0 0 0 0 0 0 0 0 0 0 0 0 0 0 0 0 0 0 0 0 0 0 0 0 0 0 0 0 0 0 0 0 0 0 0 0 0 0 0 0 0 0 0 0
0 0 0 0 0 0 0 0 0 0 0 0 0 0 0 0 0 0 0 0 0 0 0 0 0 0 0 0 0 0 0 0 0 0 0 0 0 0 0 0 0 0 0 0
0 0 0 0 0 0 0 0 0 0 0 0 0 0 0 0 0 0 0 0 0 0 0 0 0 0 0 0 0 0 0 0 0 0 0 0 0 0 0 0 0 0 0 0
0 0 0 0 0 0 0 0 0 0 0 0 0 0 0 0 0 0 0 0 0 0 0 0 0 0 0 0 0 0 0 0 0 0 0 0 0 0 0 0 0 0 0 0
0 0 0 0 0 0 0 0 0 0 0 0 0 0 0 0 0 0 0 0 0 0 0 0 0 0 0 0 0 0 0 0 0 0 0 0 0 0 0 0 0 0 0 0
0 0 0 0 0 0 0 0 0 0 0 0 0 0 0 0 0 0 0 0 0 0 0 0 0 0 0 0 0 0 0 0 0 0 0 0 0 0 0 0 0 0 0 0
0 0 0 0 0 0 0 0 0 0 0 0 0 0 0 0 0 0 0 0 0 0 0 0 0 0 0 0 0 0 0 0 0 0 0 0 0 0 0 0 0 0 0 0
0 0 0 0 0 0 0 0 0 0 0 0 0 0 0 0 0 0 0 0 0 0 0 0 0 0 0 0 0 0 0 0 0 0 0 0 0 0 0 0 0 0 0 0
0 0 0 0 0 0 0 0 0 0 0 0 0 0 0 0 0 0 0 0 0 0 0 0 0 0 0 0 0 0 0 0 0 0 0 0 0 0 0 0 0 0 0 0
0 0 0 0 0 0 0 0 0 0 0 0 0 0 0 0 0 0 0 0 0 0 0 0 0 0 0 0 0 0 0 0 0 0 0 0 0 0 0 0 0 0 0 0
0 0 0 0 0 0 0 0 0 0 0 0 0 0 0 0 0 0 0 0 0 0 0 0 0 0 0 0 0 0 0 0 0 0 0 0 0 0 0 0 0 0 0 0
0 0 0 0 0 0 0 0 0 0 0 0 0 0 0 0 0 0 0 0 0 0 0 0 0 0 0 0 0 0 0 0 0 0 0 0 0 0 0 0 0 0 0 0
0 0 0 0 0 0 0 0 0 0 0 0 0 0 0 0 0 0 0 0 0 0 0 0 0 0 0 0 0 0 0 0 0 0 0 0 0 0 0 0 0 0 0 0
0 0 0 0 0 0 0 0 0 0 0 0 0 0 0 0 0 0 0 0 0 0 0 0 0 0 0 0 0 0 0 0 0 0 0 0 0 0 0 0 0 0 0 0
0 0 0 0 0 0 0 0 0 0 0 0 0 0 0 0 0 0 0 0 0 0 0 0 0 0 0 0 0 0 0 0 0 0 0 0 0 0 0 0 0 0 0 0
0 0 0 0 0 0 0 0 0 0 0 0 0 0 0 0 0 0 0 0 0 0 0 0 0 0 0 0 0 0 0 0 0 0 0 0 0 0 0 0 0 0 0 0
0 0 0 0 0 0 0 0 0 0 0 0 0 0 0 0 0 0 0 0 0 0 0 0 0 0 0 0 0 0 0 0 0 0 0 0 0 0 0 0 0 0 0 0
Wind_Speed
11 10 12 12 9 7 7 6 6 7 4 3 9 14 17 8 2 3 3 1 3 5 5 7 8 8 8 9 10 9 9 8 4 3 3 2 2 2 2 3 3 3 3 3
11 14 11 9 7 6 5 4 4 6 2 3 7 11 11 6 4 5 6 4 3 4 6 8 8 9 9 9 9 10 10 10 7 4 3 3 4 5 4 6 8 9 9 8
11 7 11 9 7 7 5 6 5 5 8 5 5 9 7 4 1 4 5 5 4 5 5 5 6 7 8 9 9 9 11 12 11 8 6 6 5 5 6 7 6 8 8 9
8 5 12 11 9 9 7 6 4 3 3 5 3 7 9 5 2 3 5 5 5 4 4 4 5 6 7 7 7 9 11 13 12 10 11 12 9 7 5 4 4 6 8 8
9 8 14 14 9 9 5 4 5 3 3 4 3 4 11 3 5 6 6 6 5 5 5 5 5 6 6 6 7 8 10 12 11 11 10 10 8 5 3 4 6 7 7 7
3 3 7 7 6 7 5 5 4 4 3 4 6 6 10 6 8 6 7 7 7 6 5 5 5 6 6 6 7 7 11 11 9 10 10 10 9 7 7 7 7 6 5 5
5 3 3 6 8 4 5 5 1 1 1 7 3 5 12 7 5 7 12 11 8 7 6 6 6 6 6 6 6 7 10 9 8 9 9 8 8 8 8 6 6 6 5 5
10 9 9 7 8 9 8 8 7 7 5 5 2 7 11 4 5 5 9 11 9 7 6 6 6 6 6 6 6 7 8 8 7 8 8 7 7 5 5 6 5 6 5 5
9 6 4 5 6 13 9 7 5 4 1 3 6 8 11 1 5 3 9 10 10 8 7 6 6 5 6 6 5 6 7 7 7 7 7 8 7 7 6 6 5 4 5 6
8 6 5 5 5 3 9 11 6 5 3 4 6 5 5 6 3 2 7 10 8 7 7 6 5 5 5 5 5 6 7 7 7 7 7 7 6 6 6 5 6 6 6 6
5 8 4 5 8 10 6 5 6 6 5 4 4 7 5 6 6 6 7 6 8 8 8 6 6 6 5 5 5 6 7 7 7 7 6 6 6 6 5 5 5 6 6 7
4 7 5 3 2 7 8 10 9 7 5 5 3 8 5 6 5 5 7 6 6 7 6 7 7 6 6 6 6 6 6 6 6 5 6 5 5 5 5 5 6 6 6 6
7 8 8 3 1 2 4 6 6 6 6 6 5 8 4 4 3 4 7 7 6 7 7 6 6 6 6 5 5 6 6 5 5 5 5 5 5 5 6 6 6 6 7 7
6 5 8 12 9 9 6 6 6 8 6 6 8 7 4 3 2 2 4 6 6 6 7 7 6 6 6 5 5 5 5 4 4 4 5 5 5 5 6 6 6 6 7 8
5 4 3 3 4 9 8 10 11 9 9 9 8 8 7 3 1 1 3 5 6 7 7 7 7 6 5 5 4 4 4 4 4 4 4 4 5 5 5 6 6 6 7 9
3 5 4 3 2 3 3 8 12 9 7 6 4 6 5 2 2 3 3 5 6 6 7 7 7 6 5 4 4 3 3 3 3 4 4 4 5 5 6 6 7 7 8 8
4 6 5 3 2 3 4 7 10 7 5 8 9 7 3 3 4 2 2 3 5 7 8 8 7 6 5 4 4 3 2 2 3 3 4 5 5 6 6 7 7 8 8 9
6 5 5 5 4 6 6 1 7 7 2 2 3 3 3 5 3 1 1 3 4 6 7 7 6 5 4 4 4 3 3 3 3 4 4 5 5 6 6 7 7 8 8 9
2 7 6 5 4 4 5 3 7 8 2 1 5 5 5 3 3 3 1 2 4 6 6 5 5 5 5 4 4 3 3 3 3 4 5 5 6 6 7 7 8 8 9 10
5 5 6 5 5 8 5 4 4 8 2 2 4 6 5 3 3 2 0 3 4 5 5 6 6 6 5 3 3 3 2 3 4 5 5 6 6 6 7 7 7 7 8 10
4 4 4 4 4 6 2 3 5 5 7 5 5 6 5 4 4 2 3 4 5 5 6 6 6 5 4 3 3 2 2 3 4 5 5 6 6 6 7 6 6 9 10 10
8 7 5 5 4 7 2 6 7 5 6 6 5 5 4 3 1 2 4 5 6 6 6 6 6 4 3 2 1 1 3 4 5 5 6 6 7 7 8 7 8 8 9 11
5 6 6 7 5 1 1 4 5 7 7 6 5 4 5 4 3 4 5 6 6 6 5 5 5 4 2 1 1 2 4 5 5 5 6 7 7 7 7 7 9 8 7 8
2 2 4 2 2 1 3 5 5 5 6 5 5 4 5 4 3 3 4 5 5 5 5 4 4 3 1 1 1 3 5 5 5 6 7 7 7 7 6 6 6 7 8 9
5 5 4 3 3 4 2 3 5 5 5 5 4 3 3 4 3 4 4 5 5 4 4 4 3 2 1 2 3 4 5 4 5 6 7 7 7 7 7 6 5 8 7 11
4 6 7 6 7 7 6 5 5 5 4 4 4 4 3 3 4 5 5 5 5 5 4 3 2 0 2 3 5 5 5 4 5 6 6 5 5 6 7 8 9 13 15 21
Wind_Direction
183 184 188 183 178 157 157 172 220 250 264 282 264 268 276 284 240 209 177 135 63 43 14 15 18 17 22 24 25 24 29 19 35 70 86 87 50 26 24 16 6 358 350 335
184 203 182 157 148 131 146 174 238 280 285 245 277 277 271 263 225 191 171 156 111 73 39 25 24 26 30 28 25 33 36 34 38 58 74 83 82 58 52 47 45 39 38 32
198 171 155 148 148 161 180 192 222 271 330 328 313 300 296 298 123 123 129 129 121 108 87 52 39 36 35 33 28 42 43 43 42 49 63 63 57 49 39 32 32 29 35 34
217 160 159 165 169 161 215 206 211 268 330 299 349 305 291 282 225 162 139 133 135 124 107 86 66 53 43 35 35 48 51 50 46 51 65 70 70 63 37 26 25 23 27 28
198 173 168 181 177 161 183 172 189 222 222 277 287 260 280 287 237 214 182 168 165 152 131 107 85 74 58 47 50 55 61 57 53 58 65 73 71 67 49 34 29 22 16 20
140 160 170 162 143 154 121 89 75 53 87 272 233 207 277 245 220 201 178 177 177 165 143 116 95 85 70 59 59 63 70 62 56 62 63 69 69 57 46 33 24 14 5 7
159 170 176 141 128 135 130 120 102 296 268 251 237 213 252 254 230 196 176 176 178 171 153 134 113 95 84 73 69 71 77 68 58 62 59 58 60 55 48 32 20 13 4 358
165 185 186 173 159 155 172 162 171 191 222 274 233 236 255 280 290 229 166 159 161 168 162 147 132 116 102 91 82 80 80 73 62 63 59 52 50 50 41 29 19 12 360 348
163 180 169 185 155 147 160 190 173 135 218 270 269 275 299 299 17 106 145 152 165 171 167 155 137 121 113 102 89 87 86 76 63 62 64 52 45 41 33 22 15 6 356 352
132 141 168 148 113 146 158 150 136 164 200 258 287 280 273 314 329 169 171 170 169 164 163 153 137 125 115 105 92 78 77 75 65 58 57 57 42 34 24 18 10 359 349 344
126 128 147 155 179 162 130 147 151 153 165 174 278 282 247 274 272 213 196 181 167 165 165 153 137 126 115 97 83 73 67 65 59 59 58 49 36 25 18 12 359 347 340 337
146 119 130 184 224 175 156 165 149 159 202 176 186 271 296 296 278 182 166 165 161 162 156 144 135 125 110 94 78 68 62 60 58 61 57 45 28 17 9 358 348 343 339 334
150 121 117 122 197 176 169 167 160 135 130 156 172 261 315 17 63 132 152 160 159 154 143 133 128 120 109 95 80 67 59 59 60 63 54 36 18 7 358 346 341 341 339 334
133 129 163 183 192 167 178 180 161 141 165 186 212 246 302 5 65 133 157 160 154 148 141 134 125 114 106 95 83 73 60 57 65 59 45 27 6 354 344 336 337 338 335 336
130 132 141 151 167 159 171 179 176 185 183 183 214 216 238 241 204 149 143 140 137 139 137 136 129 121 112 101 90 81 69 57 59 51 34 9 349 340 338 335 334 332 332 335
121 130 119 78 106 150 173 189 186 195 189 199 194 229 239 220 113 87 110 139 145 145 139 134 132 130 128 124 115 99 78 60 55 42 15 350 342 339 337 332 331 330 329 328
137 138 121 129 130 116 236 204 183 187 186 174 200 219 172 126 102 86 100 136 149 151 147 147 148 146 141 136 128 115 91 65 49 23 357 343 337 332 328 330 332 332 329 328
133 113 108 124 138 214 237 91 148 132 103 197 156 126 119 122 112 66 70 143 151 150 150 152 147 136 124 113 108 104 80 53 26 2 342 331 326 322 322 326 328 326 324 324
107 127 119 132 173 253 275 179 150 131 83 353 136 120 105 123 87 21 42 125 158 158 150 140 131 125 115 107 107 99 65 28 3 341 325 317 317 320 325 326 322 320 320 318
48 87 111 130 161 224 226 148 141 103 121 271 136 136 140 117 95 267 240 116 119 116 112 114 114 112 108 99 98 86 38 360 332 314 306 306 312 317 316 310 308 310 311 307
92 75 108 143 197 253 212 134 121 155 200 171 147 146 152 162 186 217 122 117 119 116 117 120 117 111 106 95 90 69 347 311 298 300 304 310 314 313 305 302 303 305 306 308
155 148 163 150 188 242 160 138 165 164 127 137 150 161 168 185 162 122 139 138 134 128 125 121 116 115 108 104 107 330 298 291 298 306 310 310 309 309 313 306 301 300 304 310
185 176 175 179 195 242 120 144 132 128 132 155 164 174 164 163 162 158 160 156 150 140 130 121 128 132 133 134 151 296 293 303 311 314 311 307 304 297 293 294 301 307 308 309
227 136 123 146 224 111 99 108 117 126 141 154 152 152 151 153 149 152 153 153 145 136 133 128 135 145 177 283 308 289 295 308 314 310 305 301 298 294 289 289 293 303 307 306
168 149 137 151 143 113 142 151 140 120 112 114 109 112 130 138 134 147 154 155 150 141 135 135 143 161 266 306 308 303 304 310 306 298 294 294 294 292 297 295 291 301 288 297
181 167 166 196 188 167 187 176 145 137 140 144 140 125 104 132 148 146 151 153 150 146 139 137 137 185 304 313 308 305 304 300 294 296 296 294 297 297 301 304 305 304 308 312